Skip Page Navigation
NASA JPL Caltech
NASA Logo - Jet Propulsion Laboratory + View the NASA Portal
+ Center for Near-Earth Object Studies
JPL Home Earth Solar System Stars & Galaxies Technology
JPL Solar System Dynamics
BODIES ORBITS EPHEMERIDES TOOLS PHYSICAL DATA DISCOVERY FAQ SITE MAP
IMPORTANT: The SSD Announcement email list is now available. Major changes are coming in the near future, including possible hostname and/or URL changes. To be notified of such changes, subscribe to this email list.

Please visit this page for more details.


JPL Small-Body Database Browser
Search: [ help ]  
47527 (2000 AR90)
Classification: Main-belt Asteroid          SPK-ID: 2047527
Ephemeris | Orbit Diagram | Orbital Elements | Mission Design | Physical Parameters | Discovery Circumstances ]

[ show orbit diagram ]
Orbital Elements at Epoch 2458600.5 (2019-Apr-27.0) TDB
Reference: JPL 17 (heliocentric ecliptic J2000)
 Element Value Uncertainty (1-sigma)   Units 
e .08901177131378706 4.4082e-08  
a 2.545390248667839 1.3049e-08 au
q 2.318820553949074 1.1189e-07 au
i 3.226699860711948 4.5401e-06 deg
node 266.2221306100172 8.666e-05 deg
peri 214.3084084115818 9.0932e-05 deg
M 268.3340731508488 2.9137e-05 deg
tp 2458978.189945952540
(2020-May-08.68994595)
0.00012116 TDB
period 1483.303395455422
4.06
1.1406e-05
3.123e-08
d
yr
n .2427015276193502 1.8664e-09 deg/d
Q 2.771959943386604 1.4211e-08 au
  Orbit Determination Parameters
   # obs. used (total)      632  
   data-arc span      8744 days (23.94 yr)  
   first obs. used      1995-12-26  
   last obs. used      2019-12-04  
   planetary ephem.      DE431  
   SB-pert. ephem.      SB431-N16  
   condition code      0  
   norm. resid. RMS      .53975  
   source      ORB  
   producer      Otto Matic  
   solution date      2019-Dec-14 04:03:48  

Additional Information
 Earth MOID = 1.33597 au 
 Jupiter MOID = 2.29282 au 
 T_jup = 3.435 
[ show covariance matrix ]

Ephemeris | Orbit Diagram | Orbital Elements | Mission Design | Physical Parameters | Discovery Circumstances ]

Physical Parameter Table
Parameter Symbol Value Units Sigma Reference Notes
absolute magnitude H 15.3   n/a MPO502472  

47527 (2000 AR90)          Discovered 2000-Jan-05 by LINEAR at Socorro
Reference: 20020921/Numbers.arcLast Updated: 2004-04-19

Alternate Designations
 2000 AR90 = 1998 RX41 
Ephemeris | Orbit Diagram | Orbital Elements | Mission Design | Physical Parameters | Discovery Circumstances ]
ABOUT SSD CREDITS/AWARDS PRIVACY/COPYRIGHT GLOSSARY LINKS
FirstGov 2020-Jan-29 02:15 UT
(server date/time)  
NASA Home Page
Site Manager:   Ryan S. Park
Webmaster  Alan B. Chamberlin